Location: ????????
(56.1167°N, 38.6333°E)
Time: 10:38:29
(UTC+00:00)

Cosmos 1346 Rocket - Pass Details

Date: 21 February 2026
Orbit: 476 x 485 km, 81.2° (Epoch: 11 March)

Event Time Altitude Azimuth Distance (km) Brightness Sun altitude
Rises 01:44:37 0° 348° (NNW) 2,571 6.3 -24.5°
Reaches altitude 10° 01:46:47 10° 354° (N) 1,686 5.4 -24.3°
Maximum altitude 01:50:23 48° 70° (ENE) 650 3.5 -23.8°
Drops below altitude 10° 01:53:57 10° 146° (SE) 1,675 5.5 -23.3°
Sets 01:56:06 0° 152° (SSE) 2,552 6.4 -23.0°
